This is the latest recevied weather packets stored in our database for station/object IW4CYE-7. If no packets are shown the sender has not sent any weather packets the latest 10 day(s).
| Time | Temp. | Humidity | Pressure | Rain* | Wind** | Luminosity | Snow |
|---|---|---|---|---|---|---|---|
| 1788025641 | 28.33° C | 44% | 1001 hPa | 0 mm | - | - | - |
| 1788025041 | 29.44° C | 41% | 1001 hPa | 0 mm | - | - | - |
| 1788024441 | 30° C | 39% | 1001 hPa | 0 mm | - | - | - |
| 1788023841 | 30.56° C | 41% | 1001 hPa | 0 mm | - | - | - |
| 1788023241 | 31.11° C | 36% | 1001.4 hPa | 0 mm | - | - | - |
| 1788022641 | 31.67° C | 36% | 1001.4 hPa | 0 mm | - | - | - |
| 1788022041 | 31.67° C | 37% | 1001 hPa | 0 mm | - | - | - |
| 1788021441 | 32.22° C | 36% | 1001 hPa | 0 mm | - | - | - |
| 1788020841 | 32.22° C | 37% | 1001 hPa | 0 mm | - | - | - |
| 1788020241 | 32.22° C | 40% | 1001 hPa | 0 mm | - | - | - |
| 1788019641 | 32.78° C | 36% | 1001.4 hPa | 0 mm | - | - | - |
| 1788019041 | 32.78° C | 38% | 1001 hPa | 0 mm | - | - | - |
| 1788018441 | 32.78° C | 39% | 1001 hPa | 0 mm | - | - | - |
| 1788017841 | 32.78° C | 38% | 1001.4 hPa | 0 mm | - | - | - |
| 1788017241 | 33.33° C | 39% | 1001.4 hPa | 0 mm | - | - | - |
| 1788016641 | 33.89° C | 36% | 1001.4 hPa | 0 mm | - | - | - |
| 1788016041 | 33.89° C | 35% | 1001.4 hPa | 0 mm | - | - | - |
| 1788015441 | 34.44° C | 36% | 1001.4 hPa | 0 mm | - | - | - |
| 1788014841 | 34.44° C | 36% | 1001.4 hPa | 0 mm | - | - | - |
| 1788014241 | 33.89° C | 37% | 1001.4 hPa | 0 mm | - | - | - |
| 1788013641 | 34.44° C | 39% | 1001.4 hPa | 0 mm | - | - | - |
| 1788013041 | 34.44° C | 37% | 1001.4 hPa | 0 mm | - | - | - |
| 1788012441 | 34.44° C | 36% | 1001.7 hPa | 0 mm | - | - | - |
| 1788011841 | 33.89° C | 37% | 1001.4 hPa | 0 mm | - | - | - |
| 1788011241 | 34.44° C | 36% | 1001.7 hPa | 0 mm | - | - | - |
* Rain latest hour (hover to see other rain measurements)
** Current wind speed in m/s (hover to see current wind gust speed)